Regional Weather Roundup
Issued by NWS

Home | Current Version | Previous Version | Graphics & Text | Print | Product List | Glossary On
Versions: 1 2 3 4 5 6 7 8 9 10 11 12 13 14 15 16 17 18 19 20 21 22 23 24 25 26 27 28 29 30 31 32 33 34 35 36 37 38 39 40 41 42 43 44 45 46 47 48 49 50
000
ASUS43 KDTX 222301
RWRMI
MICHIGAN HOURLY REGIONAL WEATHER ROUNDUP
NATIONAL WEATHER SERVICE DETROIT/PONTIAC MI
700 PM EDT TUE AUG 22 2017

NOTE: "FAIR" INDICATES FEW OR NO CLOUDS BELOW 12,000 FEET WITH NO
SIGNIFICANT WEATHER AND/OR OBSTRUCTION TO VISIBILITY.

MIZ047>049-052>055-059>063-066>070-074>076-081>083-230000-
SOUTHEAST LOWER MICHIGAN

CITY           SKY/WX    TMP DP  RH WIND       PRES   REMARKS
ADRIAN         SUNNY     76  58  53 NW15G23   29.85R
ALMA           MOSUNNY   71  49  45 W13G24    29.86R
ANN ARBOR      SUNNY     77  58  51 W18G25    29.82R
BAD AXE        SUNNY     70  52  51 NW7G17    29.80R
CARO           SUNNY     70  55  57 W10G21    29.82R
DETROIT CITY   PTSUNNY   75  59  57 NW14G24   29.80R
DETROIT        PTSUNNY   78  59  51 W15       29.81R
FLINT          PTSUNNY   72  57  59 NW15      29.83R
GROSSE ILE     SUNNY     78  59  51 W14G21    29.80R
HILLSDALE      PTSUNNY   72  57  60 W16G24    29.88R
HOWELL         PTSUNNY   73  56  54 NW13G23   29.84R

CITY           SKY/WX    TMP DP  RH WIND       PRES   REMARKS
JACKSON        SUNNY     73  54  51 W13G29    29.86R
LAMBERTVILLE   SUNNY     77  60  57 W10G17    29.83R
LANSING        MOSUNNY   73  52  47 NW12      29.87R
LAPEER         FAIR      72  56  56 N10G21    29.82R
MASON          SUNNY     74  56  53 W16G25    29.86R
MONROE         SUNNY     77  60  55 W10G17    29.81R
MT. CLEMENS    PTSUNNY   73  62  67 NW10      29.79R
PONTIAC        PTSUNNY   73  62  68 NW15      29.81R
PORT HOPE        N/A     71  54  54 NW13G24   29.77R
PORT HURON     CLOUDY    73  63  68 NW5       29.80R
TRI CITIES     MOSUNNY   72  55  55 NW12G22   29.83R
MIDLAND        FAIR      72  54  51 NW9       29.82R
TROY           PTSUNNY   75  59  58 NW13G18   29.83R
SAGINAW HB     MOSUNNY   72  54  53 NW15      29.82R
$$
MIZ043>046-050>051-056>058-064>065-071>073-077>080-230000-
SOUTHWEST LOWER MICHIGAN

CITY           SKY/WX    TMP DP  RH WIND       PRES   REMARKS
BATTLE CREEK   SUNNY     72  53  51 NW18G29   29.91R
BENTON HARBOR  SUNNY     73  56  54 VRB7      29.92R
BIG RAPIDS     MOSUNNY   69  49  49 NW12G22   29.87R
COLDWATER      MOSUNNY   73  56  54 NW14G21   29.90R
FREMONT        FAIR      71  53  53 NW12G24   29.88R
HOLLAND        SUNNY     72  56  57 NW14G22   29.91R
GRAND RAPIDS   MOSUNNY   72  54  53 NW13      29.88R
IONIA          FAIR      72  50  45 W13G21    29.87R
KALAMAZOO      SUNNY     73  51  46 NW20G28   29.91R
LUDINGTON      MOSUNNY   71  53  52 NW10      29.88R
MARSHALL       SUNNY     72  54  53 W15G23    29.89R
MOUNT PLEASANT SUNNY     73  50  44 NW8G17    29.84R
MUSKEGON       MOSUNNY   74  54  49 NW10G22   29.90R
SOUTH HAVEN    SUNNY     73  57  58 N12G17    29.92S
$$
MIZ016>042-230000-
NORTHERN LOWER MICHIGAN

CITY           SKY/WX    TMP DP  RH WIND       PRES   REMARKS
ALPENA         MOSUNNY   69  52  54 W14G24    29.76R
BEAVER ISLAND  SUNNY     67  52  57 NW12G17   29.81S
BELLAIRE       SUNNY     69  51  52 W9        29.82R
CADILLAC       MOSUNNY   69  50  50 NW12G18   29.86R
CHARLEVOIX     SUNNY     68  55  62 W14G21    29.83S
FRANKFORT      MOSUNNY   72  54  53 NW15      29.85S
GAYLORD        PTSUNNY   62  53  72 VRB7      29.81S
GRAYLING       SUNNY     67  48  50 NW13G23   29.83S
HARBOR SPRINGS PTSUNNY   68  51  53 W13G21    29.79S
HOUGHTON LAKE  MOSUNNY   68  51  54 NW14G21   29.84R
MANISTEE       SUNNY     71  56  58 W14       29.86R
OSCODA         SUNNY     71  49  46 W17G24    29.77R
PELLSTON       PTSUNNY   67  52  58 NW15G25   29.79R
ROGERS CITY    SUNNY     67  48  50 NW13G22   29.77R
TRAVERSE CITY  MOSUNNY   72  48  42 W14G24    29.82S
$$
MIZ007>008-015-230000-
EASTERN UPPER MICHIGAN

CITY           SKY/WX    TMP DP  RH WIND       PRES   REMARKS
KINROSS        MOSUNNY   62  50  64 NW22G30   29.76R
MACKINAC ISLAN SUNNY     65  50  57 NW21G35   29.77R
NEWBERRY       PTSUNNY   62  51  66 W10G22    29.79S
S. S. MARIE    PTSUNNY   63  51  65 W18G31    29.75R
MUNISING         N/A     67  54  63 NW9G18    29.81S
$$
MIZ004>006-011>014-085-230000-
CENTRAL UPPER MICHIGAN

CITY           SKY/WX    TMP DP  RH WIND       PRES   REMARKS
MANISTIQUE     SUNNY     65  45  48 NW10      29.81R
ESCANABA       SUNNY     69  49  48 W12G17    29.83S
MENOMINEE      MOSUNNY   68  50  52 NW8       29.87S
SAWYER-GWINN   MOSUNNY   64  48  55 NW9G18    29.85R
$$
MIZ001>003-009>011-084-230000-
WESTERN UPPER MICHIGAN

CITY           SKY/WX    TMP DP  RH WIND       PRES   REMARKS
IRON MOUNTAIN  SUNNY     68  46  45 NW17G25   29.86R
HOUGHTON       SUNNY     64  51  62 W22G35    29.83R
COPPER HARBOR    N/A     65  50  58 N13G26    29.78S
IRONWOOD       CLOUDY    64  53  67 W9        29.92S
$$

ABBREVIATIONS USED IN REMARKS
   TC - TEMPERATURE IN CELSIUS
  WCI - WIND CHILL INDEX
   HX - HEAT INDEX
  VSB - VISIBILITY




USA.gov is the U.S. government's official web portal to all federal, state and local government web resources and services.